Lexington Weather

Lexington, Massachusetts, USA

45°F
4/22/2024 9:27am 
  • Lexington Conditions: Clear
  • Temperature: 44.8°F / 7.1°CWarmer 2.5°F than last hour.
  • Dew Point: 25.7°FDecreased 1.6°Fsince last hour.
  • Relative Humidity: 47%Decreased 8.0% since last hour.
  • Wind: Calm, 10-min avg: Calm, gust: 6 mph
  • Barometer: 29.97 inRising 0.02  inHg/hr Rising Slowly
  • Visibility: 10 miles
  • Rain Today: 0.00 in
  •   

Regional Weather Roundup
for Boston, MA

        
000
ASUS41 KBOX 160010
RWRBOX

REGIONAL WEATHER ROUNDUP
NATIONAL WEATHER SERVICE BOSTON/NORTON MA
800 PM EDT MON APR 15 2024

NOTE:  "FAIR" INDICATES FEW OR NO CLOUDS BELOW 12,000 FEET WITH NO 
SIGNIFICANT WEATHER AND/OR OBSTRUCTIONS TO VISIBILITY.

MAZALL-160100-
EASTERN MASSACHUSETTS
  
CITY           SKY/WX    TMP DP  RH WIND       PRES   REMARKS
BOSTON         FAIR      63  33  32 NW14      29.88R                  
6HR MIN TEMP:  63; 6HR MAX TEMP:  73;                                

BEVERLY        FAIR      56  41  57 N9        29.88R                  
LAWRENCE       FAIR      56  40  55 N9        29.92R                  
BEDFORD          N/A     59  31  34 MISG      29.87R                  
NORWOOD        FAIR      64  37  36 NW8       29.88R                  
MARSHFIELD     CLOUDY    57  45  62 CALM      29.88R                  
PLYMOUTH       CLOUDY    61  44  53 E6        29.87R                  
TAUNTON        CLOUDY    67  39  35 NW6       29.87R                  
NEW BEDFORD    FAIR      62  50  64 CALM      29.87R                  
$$

MAZALL-160100-
CAPE COD AND THE ISLANDS
  
CITY           SKY/WX    TMP DP  RH WIND       PRES   REMARKS
FALMOUTH       CLEAR     55  46  71 W10       29.87R                  
HYANNIS        FAIR      58  49  72 N3        29.87R                  
CHATHAM        FAIR      56  50  80 NW5       29.88R                  
PROVINCETOWN   MOCLDY    60  44  55 N12       29.90R                  
NANTUCKET      MOCLDY    50  47  89 SW5       29.86R                  
MARTHAS VNYRD  MOCLDY    58  49  72 NW9       29.86R                  
$$
 
MAZALL-160100-
CENTRAL AND WESTERN MASSACHUSETTS
  
CITY           SKY/WX    TMP DP  RH WIND       PRES   REMARKS
WORCESTER      FAIR      58  33  39 NW14G26   29.88R                  
6HR MIN TEMP:  58; 6HR MAX TEMP:  70;                                

FITCHBURG      FAIR      58  30  34 NW13G21   29.90R                  
ORANGE         FAIR      56  32  40 NW9       29.92R                  
SPRINGFIELD    PTCLDY    59  33  38 NW10      29.87R                  
WESTFIELD      FAIR      59  36  42 N12       29.90R                  
NORTH ADAMS    MOCLDY    54  34  46 W8        29.93R                  
PITTSFIELD     FAIR      52  30  43 NW12G24   29.91R                  
$$
 
RIZALL-160100-
RHODE ISLAND
  
CITY           SKY/WX    TMP DP  RH WIND       PRES   REMARKS
PROVIDENCE     MOCLDY    65  41  41 N9        29.87R                  
6HR MIN TEMP:  65; 6HR MAX TEMP:  77;                                

NEWPORT        MOCLDY    58  49  72 CALM      29.86R                  
BLOCK ISLAND   CLOUDY    55  48  77 W13       29.87R                  
SMITHFIELD     MOCLDY    62  38  40 NW5       29.89R                  
WESTERLY       FAIR      58  49  72 CALM      29.86R                  
$$
 
CTZALL-160100-
CONNECTICUT
  
CITY           SKY/WX    TMP DP  RH WIND       PRES   REMARKS
BRADLEY INTL   FAIR      63  37  38 N13G20    29.89R                  
6HR MIN TEMP:  63; 6HR MAX TEMP:  76;                                

HARTFORD       MOCLDY    64  39  39 N12G21    29.87R                  
PLAINVILLE     FAIR      63  38  39 N6        29.88R                  
BRIDGEPORT     FAIR      70  42  36 N8        29.84R                  
DANBURY        FAIR      64  38  38 N10       29.89R                  
GROTON         FAIR      60  50  69 CALM      29.85R                  
NEW HAVEN      FAIR      70  43  37 NE10      29.85R                  
CHESTER        FAIR      66  39  37 NW10      29.87R                  
MERIDEN        MOCLDY    66  37  34 N9        29.88R                  
WILLIMANTIC    MOCLDY    63  38  39 N5        29.90R                  
OXFORD         FAIR      59  40  49 N14       29.89R                  
$$

MEZ002-015-021-024-NHZ003-005-008-011-012-014-VTZ005-008-160100-
NORTHERN NEW ENGLAND
  
CITY           SKY/WX    TMP DP  RH WIND       PRES   REMARKS
PORTLAND ME    MOCLDY    54  42  64 NW8       29.89R                  
6HR MIN TEMP:  54; 6HR MAX TEMP:  61; 6HR PCP: TRACE;                

BANGOR ME      MOCLDY    54  33  45 W5        29.85R                  
CONCORD NH     FAIR      51  41  68 NW8       29.91R                  
MANCHESTER NH  FAIR      56  41  57 NW14      29.90R                  
NASHUA NH      FAIR      55  41  59 NW7       29.91R                  
PORTSMOUTH NH  PTCLDY    53  40  63 NW12      29.89R                  
JAFFREY NH       N/A     51  40  65 CALM      29.91R                  
KEENE NH       FAIR      52  41  66 CALM      29.92R                  
BURLINGTON VT  FAIR      51  34  52 S5        29.90R                  
MT. WASHINGTON BLWGSNOW  23  21  93 NW41        N/A  VSB 1/16WCI   3  
$$

NYZ052-076-160100-
EASTERN NEW YORK
  
CITY           SKY/WX    TMP DP  RH WIND       PRES   REMARKS
ALBANY         FAIR      55  30  38 W7        29.96R                  
6HR MIN TEMP:  55; 6HR MAX TEMP:  65;                                

NEW YORK CITY  FAIR      65  48  54 SE8       29.81R                  
6HR MIN TEMP:  65; 6HR MAX TEMP:  80;                                

$$
 
ANZALL-160100-
MARINE OBSERVATIONS
  
STATION/POSITION TIME  TEMP    WIND        PRES    VSBY  WAVE
                       AIR SEA DIR/SP/G                  HT/PER
                 (UTC) (F)     (DEG/KT/KT) (MB)    (MI)  (FT/S)
BOSTON BUOY      2350   54     320/ 12/ 14 1011.3R         3/10
BUZZARDS BAY     2300   51     260/ 11/ 12 1010.4R
NANTUCKET SOUND  2350   51 47  300/  6/  8 1010.8R         1/10
MASS BAY-STELLWA 2204   56 45  300/ 14/ 16 1009.2R  1 7/8  3/11
ISLE OF SHOALS   2300   56     320/ 21/ 23 1010.3R
S OF BLOCK IS    2356      45                N/A           6/ 8
$$

......................KEY.........................
  SKY/WX - SKY CONDITION/PRESENT WEATHER
  TMP    - TEMPERATURE IN FAHRENHEIT
  DWPT   - DEWPOINT IN FAHRENHEIT
  RH     - RELATIVE HUMIDITY IN PERCENT
  WIND   - DIRECTION AND SPEED IN MPH
  PRES   - MEAN SEA LEVEL PRESSURE IN INCHES OF HG
  WCI    - WIND CHILL INDEX
  VSB    - VISIBILITY IN MILES
  HX     - HEAT INDEX
  TC     - TEMPERATURE IN CELSIUS
  VRB    - VARIABLE WIND DIRECTION
  N/A    - NOT AVAILABLE
  
      

Other recent Regional Weather Roundups

Mon Apr 22, 9:10am EDT

Mon Apr 22, 8:10am EDT

Mon Apr 22, 7:10am EDT

Mon Apr 22, 6:10am EDT

Mon Apr 22, 5:10am EDT

Mon Apr 22, 4:10am EDT

Mon Apr 22, 3:10am EDT

Mon Apr 22, 2:10am EDT

Mon Apr 22, 1:10am EDT

Mon Apr 22, 12:10am EDT

Sun Apr 21, 11:10pm EDT

Sun Apr 21, 10:10pm EDT

Sun Apr 21, 9:10pm EDT

Sun Apr 21, 8:10pm EDT

Sun Apr 21, 7:10pm EDT

Sun Apr 21, 6:10pm EDT

Sun Apr 21, 5:10pm EDT

Sun Apr 21, 4:10pm EDT

Sun Apr 21, 3:10pm EDT

Sun Apr 21, 2:10pm EDT

Sun Apr 21, 1:10pm EDT

Sun Apr 21, 12:10pm EDT

Sun Apr 21, 11:10am EDT

Sun Apr 21, 10:10am EDT

Sun Apr 21, 9:10am EDT

Sun Apr 21, 8:10am EDT

Sun Apr 21, 7:10am EDT

Sun Apr 21, 6:10am EDT

Sun Apr 21, 5:10am EDT

Sun Apr 21, 4:10am EDT

Sun Apr 21, 3:10am EDT

Sun Apr 21, 2:10am EDT

Sun Apr 21, 1:10am EDT

Sun Apr 21, 12:10am EDT

Sat Apr 20, 11:10pm EDT

Sat Apr 20, 10:10pm EDT

Sat Apr 20, 9:10pm EDT

Sat Apr 20, 8:10pm EDT

Sat Apr 20, 7:10pm EDT

Sat Apr 20, 6:10pm EDT

Sat Apr 20, 5:10pm EDT

Sat Apr 20, 4:10pm EDT

Sat Apr 20, 3:10pm EDT

Sat Apr 20, 2:10pm EDT

Sat Apr 20, 1:10pm EDT

Sat Apr 20, 12:10pm EDT

Sat Apr 20, 11:10am EDT

Sat Apr 20, 10:10am EDT

Sat Apr 20, 9:10am EDT

Sat Apr 20, 8:10am EDT

Sat Apr 20, 7:10am EDT

Sat Apr 20, 6:10am EDT

Sat Apr 20, 5:10am EDT

Sat Apr 20, 4:10am EDT

Sat Apr 20, 3:10am EDT

Sat Apr 20, 2:10am EDT

Sat Apr 20, 1:10am EDT

Sat Apr 20, 12:10am EDT

Fri Apr 19, 11:10pm EDT

Fri Apr 19, 10:10pm EDT

Fri Apr 19, 9:10pm EDT

Fri Apr 19, 8:10pm EDT

Fri Apr 19, 7:10pm EDT

Fri Apr 19, 6:10pm EDT

Fri Apr 19, 5:10pm EDT

Fri Apr 19, 4:10pm EDT

Fri Apr 19, 3:10pm EDT

Fri Apr 19, 2:10pm EDT

Fri Apr 19, 1:10pm EDT

Fri Apr 19, 12:10pm EDT

Fri Apr 19, 11:10am EDT

Fri Apr 19, 10:10am EDT

Fri Apr 19, 9:10am EDT

Fri Apr 19, 8:10am EDT

Fri Apr 19, 7:10am EDT

Fri Apr 19, 6:10am EDT

Fri Apr 19, 5:10am EDT

Fri Apr 19, 4:10am EDT

Fri Apr 19, 3:10am EDT

Fri Apr 19, 2:10am EDT

Fri Apr 19, 1:10am EDT

Fri Apr 19, 12:10am EDT

Thu Apr 18, 11:10pm EDT

Thu Apr 18, 10:10pm EDT

Thu Apr 18, 9:10pm EDT

Thu Apr 18, 8:10pm EDT

Thu Apr 18, 7:10pm EDT

Thu Apr 18, 6:10pm EDT

Thu Apr 18, 5:10pm EDT

Thu Apr 18, 4:10pm EDT

Thu Apr 18, 3:10pm EDT

Thu Apr 18, 2:10pm EDT

Thu Apr 18, 1:10pm EDT

Thu Apr 18, 12:10pm EDT

Thu Apr 18, 11:10am EDT

Thu Apr 18, 10:10am EDT

Thu Apr 18, 9:10am EDT

Thu Apr 18, 8:10am EDT

Thu Apr 18, 7:10am EDT

Thu Apr 18, 6:10am EDT

Thu Apr 18, 5:10am EDT

Thu Apr 18, 4:10am EDT

Thu Apr 18, 3:10am EDT

Thu Apr 18, 2:10am EDT

Thu Apr 18, 1:10am EDT

Thu Apr 18, 12:10am EDT

Wed Apr 17, 11:10pm EDT

Wed Apr 17, 10:10pm EDT

Wed Apr 17, 9:10pm EDT

Wed Apr 17, 8:10pm EDT

Wed Apr 17, 7:10pm EDT

Wed Apr 17, 6:10pm EDT

Wed Apr 17, 5:10pm EDT

Wed Apr 17, 4:10pm EDT

Wed Apr 17, 3:10pm EDT

Wed Apr 17, 2:10pm EDT

Wed Apr 17, 1:10pm EDT

Wed Apr 17, 12:10pm EDT

Wed Apr 17, 11:10am EDT

Wed Apr 17, 10:10am EDT

Wed Apr 17, 9:10am EDT

Wed Apr 17, 8:10am EDT

Wed Apr 17, 7:10am EDT

Wed Apr 17, 6:10am EDT

Wed Apr 17, 5:10am EDT

Wed Apr 17, 4:10am EDT

Wed Apr 17, 3:10am EDT

Wed Apr 17, 2:10am EDT

Wed Apr 17, 1:10am EDT

Wed Apr 17, 12:10am EDT

Tue Apr 16, 11:10pm EDT

Tue Apr 16, 10:10pm EDT

Tue Apr 16, 9:10pm EDT

Tue Apr 16, 8:10pm EDT

Tue Apr 16, 7:10pm EDT

Tue Apr 16, 6:10pm EDT

Tue Apr 16, 5:10pm EDT

Tue Apr 16, 4:10pm EDT

Tue Apr 16, 3:10pm EDT

Tue Apr 16, 2:10pm EDT

Tue Apr 16, 1:10pm EDT

Tue Apr 16, 12:10pm EDT

Tue Apr 16, 11:10am EDT

Tue Apr 16, 10:10am EDT

Tue Apr 16, 9:10am EDT

Tue Apr 16, 8:10am EDT

Tue Apr 16, 7:10am EDT

Tue Apr 16, 6:10am EDT

Tue Apr 16, 5:10am EDT

Tue Apr 16, 4:10am EDT

Tue Apr 16, 3:10am EDT

Tue Apr 16, 2:10am EDT

Tue Apr 16, 1:10am EDT

Tue Apr 16, 12:10am EDT

Mon Apr 15, 11:10pm EDT

Mon Apr 15, 10:10pm EDT

Mon Apr 15, 9:10pm EDT

Mon Apr 15, 7:10pm EDT

Mon Apr 15, 6:10pm EDT

Mon Apr 15, 5:10pm EDT

Mon Apr 15, 4:10pm EDT

Mon Apr 15, 3:10pm EDT

Mon Apr 15, 2:10pm EDT

Mon Apr 15, 1:10pm EDT

Mon Apr 15, 12:10pm EDT

Mon Apr 15, 11:10am EDT

Mon Apr 15, 10:10am EDT